DEMLV EDDH-EDHK

Flight info

Callsign DEMLV
Flight time 0h 26m
Altitude
Route
Aircraft

Departure

Time 2026-05-06 15:38
Airport Hamburg Helmut Schmidt Airport (EDDH)

Arrival

Time 2026-05-06 16:04
Airport Kiel-Holtenau Airport (EDHK)
Time Latitude Longitude Altitude Speed Heading
2026-05-06 15:16 53.62740 9.98797 37 ft 0 kts 242°
2026-05-06 15:29 53.62733 9.98776 37 ft 5 kts 232°
2026-05-06 15:29 53.62740 9.98712 37 ft 9 kts 335°
2026-05-06 15:29 53.62786 9.98745 37 ft 11 kts 49°
2026-05-06 15:30 53.62854 9.98883 37 ft 19 kts 50°
2026-05-06 15:30 53.62934 9.99047 38 ft 15 kts 50°
2026-05-06 15:30 53.62995 9.99169 38 ft 13 kts 51°
2026-05-06 15:30 53.63058 9.99274 39 ft 14 kts 30°
2026-05-06 15:31 53.63093 9.99297 39 ft 0 kts 18°
2026-05-06 15:31 53.63094 9.99297 39 ft 1 kts 17°
2026-05-06 15:32 53.63147 9.99318 39 ft 0 kts 14°
2026-05-06 15:37 53.63201 9.99340 40 ft 15 kts 14°
2026-05-06 15:37 53.63312 9.99352 41 ft 17 kts 343°
2026-05-06 15:38 53.63605 9.99099 61 ft 78 kts 334°
2026-05-06 15:38 53.64132 9.98791 391 ft 78 kts
2026-05-06 15:38 53.64581 9.99080 909 ft 66 kts 37°
2026-05-06 15:38 53.65012 9.99454 1159 ft 76 kts 31°
2026-05-06 15:39 53.65353 10.00123 1324 ft 77 kts 42°
2026-05-06 15:39 53.65769 10.00687 1574 ft 72 kts 44°
2026-05-06 15:39 53.66262 10.00942 1801 ft 79 kts 11°
2026-05-06 15:39 53.66890 10.00644 1812 ft 101 kts 359°
2026-05-06 15:40 53.67540 10.00618 2077 ft 89 kts
2026-05-06 15:40 53.68174 10.00526 2215 ft 96 kts
2026-05-06 15:40 53.68856 10.00426 2197 ft 100 kts
2026-05-06 15:40 53.69481 10.00562 2327 ft 88 kts 17°
2026-05-06 15:41 53.70138 10.00737 2336 ft 106 kts 17°
2026-05-06 15:41 53.70873 10.00793 2559 ft 106 kts 11°
2026-05-06 15:41 53.71683 10.00871 2481 ft 124 kts 10°
2026-05-06 15:41 53.72560 10.00947 2510 ft 125 kts 11°
2026-05-06 15:42 53.73151 10.01098 2394 ft 134 kts 14°
2026-05-06 15:42 53.74082 10.01372 2410 ft 134 kts 15°
2026-05-06 15:42 53.74997 10.01665 2428 ft 135 kts 17°
2026-05-06 15:42 53.75933 10.01959 2380 ft 137 kts 17°
2026-05-06 15:43 53.76859 10.02253 2378 ft 133 kts 17°
2026-05-06 15:43 53.77765 10.02548 2374 ft 134 kts 15°
2026-05-06 15:43 53.78693 10.02829 2388 ft 136 kts 20°
2026-05-06 15:43 53.79629 10.03245 2384 ft 143 kts 19°
2026-05-06 15:44 53.80576 10.03706 2399 ft 141 kts 23°
2026-05-06 15:44 53.81473 10.04314 2372 ft 140 kts 30°
2026-05-06 15:44 53.82345 10.05050 2423 ft 141 kts 27°
2026-05-06 15:44 53.83246 10.05719 2407 ft 140 kts 29°
2026-05-06 15:45 53.84100 10.06464 2367 ft 136 kts 31°
2026-05-06 15:45 53.84888 10.07235 2408 ft 125 kts 33°
2026-05-06 15:45 53.85620 10.07962 2456 ft 123 kts 33°
2026-05-06 15:45 53.86361 10.08703 2501 ft 121 kts 34°
2026-05-06 15:46 53.87084 10.09425 2548 ft 120 kts 33°
2026-05-06 15:46 53.87805 10.10135 2579 ft 120 kts 30°
2026-05-06 15:46 53.88593 10.10588 2610 ft 120 kts 21°
2026-05-06 15:46 53.89395 10.10954 2647 ft 119 kts 20°
2026-05-06 15:47 53.90182 10.11362 2654 ft 117 kts 25°
2026-05-06 15:47 53.90942 10.11853 2659 ft 117 kts 26°
2026-05-06 15:47 53.91696 10.12385 2695 ft 117 kts 28°
2026-05-06 15:47 53.92415 10.12997 2731 ft 117 kts 32°
2026-05-06 15:48 53.93135 10.13678 2761 ft 117 kts 33°
2026-05-06 15:48 53.93839 10.14358 2776 ft 116 kts 33°
2026-05-06 15:48 53.94539 10.15038 2802 ft 116 kts 33°
2026-05-06 15:48 53.95240 10.15718 2836 ft 116 kts 33°
2026-05-06 15:49 53.95942 10.16400 2872 ft 116 kts 33°
2026-05-06 15:49 53.96649 10.17086 2880 ft 118 kts 33°
2026-05-06 15:49 53.97335 10.17746 3032 ft 110 kts 33°
2026-05-06 15:49 53.97986 10.18358 3176 ft 104 kts 33°
2026-05-06 15:50 53.98612 10.18936 3322 ft 100 kts 33°
2026-05-06 15:50 53.99218 10.19483 3471 ft 98 kts 32°
2026-05-06 15:50 53.99814 10.20010 3610 ft 95 kts 33°
2026-05-06 15:50 54.00390 10.20509 3746 ft 91 kts 32°
2026-05-06 15:51 54.00954 10.20982 3897 ft 89 kts 32°
2026-05-06 15:51 54.01521 10.21446 4048 ft 93 kts 32°
2026-05-06 15:51 54.02116 10.21929 4211 ft 97 kts 32°
2026-05-06 15:51 54.02731 10.22432 4370 ft 99 kts 32°
2026-05-06 15:52 54.03359 10.22942 4534 ft 101 kts 32°
2026-05-06 15:52 54.04015 10.23404 4690 ft 107 kts 13°
2026-05-06 15:52 54.04742 10.22875 4849 ft 120 kts 336°
2026-05-06 15:52 54.05461 10.22170 4995 ft 118 kts 338°
2026-05-06 15:53 54.06177 10.21474 4996 ft 120 kts 338°
2026-05-06 15:53 54.06915 10.20766 4997 ft 123 kts 338°
2026-05-06 15:53 54.07698 10.20183 5005 ft 124 kts 347°
2026-05-06 15:53 54.08520 10.19671 5008 ft 128 kts 347°
2026-05-06 15:54 54.09366 10.19149 5010 ft 131 kts 347°
2026-05-06 15:54 54.10228 10.18618 5011 ft 132 kts 347°
2026-05-06 15:54 54.11095 10.18073 5010 ft 133 kts 347°
2026-05-06 15:54 54.11968 10.17520 5014 ft 134 kts 347°
2026-05-06 15:55 54.12842 10.16970 5013 ft 134 kts 347°
2026-05-06 15:55 54.13706 10.16422 5013 ft 132 kts 347°
2026-05-06 15:55 54.14561 10.15877 5017 ft 131 kts 347°
2026-05-06 15:55 54.15413 10.15336 5015 ft 130 kts 347°
2026-05-06 15:56 54.16264 10.14806 5013 ft 130 kts 347°
2026-05-06 15:56 54.17113 10.14280 5013 ft 130 kts 347°
2026-05-06 15:56 54.17959 10.13746 5014 ft 130 kts 347°
2026-05-06 15:56 54.18809 10.13202 5014 ft 131 kts 347°
2026-05-06 15:57 54.19659 10.12660 5013 ft 130 kts 347°
2026-05-06 15:57 54.20522 10.12112 4940 ft 136 kts 347°
2026-05-06 15:57 54.21419 10.11550 4761 ft 141 kts 347°
2026-05-06 15:57 54.22357 10.10965 4509 ft 145 kts 347°
2026-05-06 15:58 54.23321 10.10372 4260 ft 149 kts 347°
2026-05-06 15:58 54.24300 10.09771 4009 ft 150 kts 347°
2026-05-06 15:58 54.25287 10.09163 3758 ft 151 kts 347°
2026-05-06 15:58 54.26280 10.08552 3509 ft 152 kts 347°
2026-05-06 15:59 54.27276 10.07938 3255 ft 152 kts 347°
2026-05-06 15:59 54.28264 10.07324 3000 ft 150 kts 347°
2026-05-06 15:59 54.29244 10.06721 2740 ft 149 kts 347°
2026-05-06 15:59 54.30221 10.06135 2488 ft 149 kts 347°
2026-05-06 16:00 54.31232 10.05818 2236 ft 147 kts 359°
2026-05-06 16:00 54.32170 10.05646 2216 ft 124 kts 359°
2026-05-06 16:00 54.32970 10.05458 2208 ft 108 kts 359°
2026-05-06 16:00 54.33640 10.05274 2202 ft 87 kts 359°
2026-05-06 16:01 54.34180 10.05120 2126 ft 75 kts
2026-05-06 16:01 54.34713 10.05030 1973 ft 80 kts
2026-05-06 16:01 54.35283 10.04970 1800 ft 84 kts
2026-05-06 16:01 54.35864 10.05045 1637 ft 85 kts 20°
2026-05-06 16:02 54.36385 10.05410 1507 ft 81 kts 36°
2026-05-06 16:02 54.36810 10.06027 1383 ft 78 kts 55°
2026-05-06 16:02 54.37069 10.06819 1233 ft 76 kts 66°
2026-05-06 16:02 54.37256 10.07639 1139 ft 73 kts 69°
2026-05-06 16:03 54.37405 10.08492 1011 ft 77 kts 75°
2026-05-06 16:03 54.37525 10.09392 923 ft 78 kts 77°
2026-05-06 16:03 54.37608 10.10259 788 ft 66 kts 79°
2026-05-06 16:03 54.37690 10.11066 589 ft 70 kts 79°
2026-05-06 16:04 54.37766 10.11897 450 ft 70 kts 78°
2026-05-06 16:04 54.37822 10.12743 293 ft 73 kts 81°
2026-05-06 16:04 54.37885 10.13613 118 ft 67 kts 83°
2026-05-06 16:04 54.37933 10.14209 100 ft 36 kts 84°
2026-05-06 16:05 54.37960 10.14561 99 ft 28 kts 82°
2026-05-06 16:05 54.37981 10.14885 101 ft 27 kts 83°
2026-05-06 16:05 54.38007 10.15190 100 ft 25 kts 83°
2026-05-06 16:05 54.38033 10.15331 100 ft 7 kts 14°
2026-05-06 16:06 54.38115 10.15280 97 ft 16 kts 336°
2026-05-06 16:06 54.38207 10.15158 97 ft 16 kts 301°
2026-05-06 16:06 54.38234 10.14953 97 ft 20 kts 275°
2026-05-06 16:06 54.38254 10.14676 97 ft 22 kts 277°
2026-05-06 16:07 54.38285 10.14537 97 ft 9 kts 278°
2026-05-06 16:07 54.38256 10.14494 97 ft 8 kts 176°
2026-05-06 16:07 54.38245 10.14495 97 ft 0 kts 177°